Stündliche Wetter Cava de' Tirreni

Heute, 31 Oktober, Samstag

Zeit Temperatur Niederschläge Wind Luftdruck Luftfeuchtigkeit
00:00 +15°C° 0 mm 1 m/S 735 mmHg 69%
01:00 +14°C° 0 mm 1 m/S 735 mmHg 69%
02:00 +14°C° 0 mm 1 m/S 735 mmHg 68%
03:00 +14°C° 0 mm 1 m/S 734 mmHg 67%
04:00 +14°C° 0 mm 1 m/S 734 mmHg 66%
05:00 +14°C° 0 mm 1 m/S 734 mmHg 65%
06:00 +14°C° 0 mm 1 m/S 734 mmHg 65%
07:00 +14°C° 0 mm 1 m/S 734 mmHg 62%
08:00 +16°C° 0 mm 1 m/S 735 mmHg 57%
09:00 +19°C° 0 mm 1 m/S 735 mmHg 51%
10:00 +18°C° 0 mm 0 m/S 735 mmHg 46%
11:00 +21°C° 0 mm 1 m/S 735 mmHg 45%
12:00 +22°C° 0 mm 1 m/S 735 mmHg 44%
13:00 +21°C° 0 mm 2 m/S 735 mmHg 43%
14:00 +21°C° 0 mm 2 m/S 734 mmHg 47%
15:00 +20°C° 0 mm 2 m/S 734 mmHg 52%
16:00 +19°C° 0 mm 2 m/S 734 mmHg 56%
17:00 +19°C° 0 mm 1 m/S 734 mmHg 61%
18:00 +18°C° 0 mm 1 m/S 734 mmHg 65%
19:00 +16°C° 0 mm 1 m/S 734 mmHg 69%
20:00 +16°C° 0 mm 1 m/S 734 mmHg 71%
21:00 +15°C° 0 mm 1 m/S 734 mmHg 72%
22:00 +15°C° 0 mm 1 m/S 734 mmHg 73%
23:00 +15°C° 0 mm 1 m/S 734 mmHg 75%

Morgen, 1 November, Sonntag

Zeit Temperatur Niederschläge Wind Luftdruck Luftfeuchtigkeit
00:00 +14°C° 0 mm 1 m/S 734 mmHg 77%
01:00 +14°C° 0 mm 1 m/S 734 mmHg 79%
02:00 +14°C° 0 mm 1 m/S 734 mmHg 80%
03:00 +14°C° 0 mm 1 m/S 733 mmHg 81%
04:00 +14°C° 0 mm 1 m/S 733 mmHg 82%
05:00 +14°C° 0 mm 1 m/S 733 mmHg 82%
06:00 +14°C° 0 mm 1 m/S 733 mmHg 83%
07:00 +14°C° 0 mm 1 m/S 733 mmHg 83%
08:00 +15°C° 0 mm 1 m/S 734 mmHg 79%
09:00 +16°C° 0 mm 1 m/S 734 mmHg 75%
10:00 +19°C° 0 mm 1 m/S 734 mmHg 71%
11:00 +19°C° 0 mm 1 m/S 734 mmHg 68%
12:00 +19°C° 0 mm 2 m/S 734 mmHg 65%
13:00 +19°C° 0 mm 2 m/S 734 mmHg 62%
14:00 +19°C° 0 mm 2 m/S 734 mmHg 65%
15:00 +18°C° 0 mm 2 m/S 733 mmHg 69%
16:00 +18°C° 0 mm 2 m/S 733 mmHg 72%
17:00 +17°C° 0 mm 2 m/S 733 mmHg 75%
18:00 +16°C° 0 mm 1 m/S 734 mmHg 78%
19:00 +15°C° 0 mm 1 m/S 734 mmHg 81%
20:00 +15°C° 0 mm 1 m/S 734 mmHg 82%
21:00 +15°C° 0 mm 1 m/S 734 mmHg 82%
22:00 +15°C° 0 mm 1 m/S 734 mmHg 82%
23:00 +15°C° 0 mm 1 m/S 734 mmHg 82%

übermorgen, 2 November, Montag

Zeit Temperatur Niederschläge Wind Luftdruck Luftfeuchtigkeit
00:00 +15°C° 0 mm 1 m/S 734 mmHg 82%
01:00 +15°C° 0 mm 1 m/S 734 mmHg 83%
02:00 +15°C° 0 mm 1 m/S 734 mmHg 83%
03:00 +14°C° 0 mm 1 m/S 734 mmHg 83%
04:00 +14°C° 0 mm 1 m/S 734 mmHg 83%
05:00 +14°C° 0 mm 1 m/S 734 mmHg 83%
06:00 +14°C° 0 mm 1 m/S 734 mmHg 83%
07:00 +13°C° 0 mm 0 m/S 734 mmHg 82%
08:00 +14°C° 0 mm 0 m/S 735 mmHg 77%
09:00 +16°C° 0 mm 1 m/S 735 mmHg 71%
10:00 +19°C° 0 mm 1 m/S 735 mmHg 65%
11:00 +19°C° 0 mm 1 m/S 735 mmHg 63%
12:00 +19°C° 0 mm 2 m/S 735 mmHg 60%
13:00 +19°C° 0 mm 2 m/S 735 mmHg 58%
14:00 +19°C° 0 mm 2 m/S 735 mmHg 62%
15:00 +18°C° 0 mm 2 m/S 734 mmHg 65%
16:00 +18°C° 0 mm 2 m/S 734 mmHg 69%
17:00 +17°C° 0 mm 2 m/S 734 mmHg 73%
18:00 +16°C° 0 mm 1 m/S 734 mmHg 77%
19:00 +15°C° 0 mm 1 m/S 734 mmHg 81%
20:00 +15°C° 0 mm 1 m/S 735 mmHg 82%
21:00 +15°C° 0 mm 1 m/S 735 mmHg 82%
22:00 +15°C° 0 mm 1 m/S 735 mmHg 83%
23:00 +15°C° 0 mm 1 m/S 735 mmHg 83%

3 November, Dienstag

Zeit Temperatur Niederschläge Wind Luftdruck Luftfeuchtigkeit
00:00 +14°C° 0 mm 1 m/S 734 mmHg 84%
01:00 +13°C° 0 mm 0 m/S 734 mmHg 84%
02:00 +14°C° 0 mm 1 m/S 734 mmHg 84%
03:00 +14°C° 0 mm 1 m/S 734 mmHg 84%
04:00 +14°C° 0 mm 1 m/S 734 mmHg 83%
05:00 +14°C° 0 mm 1 m/S 734 mmHg 84%
06:00 +14°C° 0 mm 1 m/S 734 mmHg 84%
07:00 +14°C° 0 mm 1 m/S 734 mmHg 85%
08:00 +15°C° 0 mm 1 m/S 734 mmHg 79%
09:00 +15°C° 0 mm 0 m/S 734 mmHg 73%
10:00 +17°C° 0 mm 0 m/S 734 mmHg 67%
11:00 +19°C° 0 mm 1 m/S 734 mmHg 64%
12:00 +20°C° 0 mm 1 m/S 734 mmHg 62%
13:00 +20°C° 0 mm 1 m/S 734 mmHg 60%
14:00 +20°C° 0 mm 1 m/S 733 mmHg 63%
15:00 +20°C° 0 mm 1 m/S 733 mmHg 66%
16:00 +19°C° 0 mm 1 m/S 733 mmHg 69%
17:00 +18°C° 0 mm 1 m/S 733 mmHg 72%
18:00 +16°C° 0 mm 1 m/S 733 mmHg 76%
19:00 +16°C° 0 mm 1 m/S 733 mmHg 80%
20:00 +15°C° 0 mm 1 m/S 733 mmHg 81%
21:00 +15°C° 0 mm 1 m/S 734 mmHg 82%
22:00 +15°C° 0 mm 1 m/S 734 mmHg 83%
23:00 +15°C° 0 mm 1 m/S 733 mmHg 83%

4 November, Mittwoch

Zeit Temperatur Niederschläge Wind Luftdruck Luftfeuchtigkeit
00:00 +14°C° 0 mm 0 m/S 733 mmHg 84%
01:00 +13°C° 0 mm 0 m/S 733 mmHg 84%
02:00 +13°C° 0 mm 0 m/S 733 mmHg 85%
03:00 +13°C° 0 mm 0 m/S 733 mmHg 85%
04:00 +13°C° 0 mm 0 m/S 732 mmHg 85%
05:00 +13°C° 0 mm 0 m/S 732 mmHg 85%
06:00 +14°C° 0 mm 1 m/S 732 mmHg 85%
07:00 +14°C° 0 mm 1 m/S 733 mmHg 85%
08:00 +15°C° 0 mm 1 m/S 733 mmHg 79%
09:00 +18°C° 0 mm 1 m/S 733 mmHg 73%
10:00 +17°C° 0 mm 0 m/S 733 mmHg 66%
11:00 +20°C° 0 mm 1 m/S 733 mmHg 64%
12:00 +20°C° 0 mm 1 m/S 733 mmHg 62%
13:00 +21°C° 0 mm 1 m/S 733 mmHg 60%
14:00 +20°C° 0 mm 1 m/S 733 mmHg 63%
15:00 +20°C° 0 mm 1 m/S 733 mmHg 66%
16:00 +19°C° 0 mm 1 m/S 733 mmHg 69%
17:00 +18°C° 0 mm 1 m/S 733 mmHg 72%
18:00 +18°C° 0 mm 1 m/S 733 mmHg 76%
19:00 +16°C° 0 mm 1 m/S 734 mmHg 79%
20:00 +16°C° 0 mm 1 m/S 734 mmHg 79%
21:00 +15°C° 0 mm 1 m/S 734 mmHg 79%
22:00 +15°C° 0 mm 1 m/S 734 mmHg 80%
23:00 +15°C° 0 mm 1 m/S 735 mmHg 80%

5 November, Donnerstag

Zeit Temperatur Niederschläge Wind Luftdruck Luftfeuchtigkeit
00:00 +15°C° 0 mm 1 m/S 735 mmHg 80%
01:00 +14°C° 0 mm 1 m/S 735 mmHg 80%
02:00 +14°C° 0 mm 1 m/S 735 mmHg 80%
03:00 +14°C° 0 mm 1 m/S 735 mmHg 80%
04:00 +14°C° 0 mm 1 m/S 735 mmHg 80%
05:00 +14°C° 0 mm 1 m/S 735 mmHg 80%
06:00 +14°C° 0 mm 2 m/S 735 mmHg 80%
07:00 +14°C° 0 mm 2 m/S 736 mmHg 80%
08:00 +15°C° 0 mm 2 m/S 736 mmHg 74%
09:00 +18°C° 0 mm 1 m/S 736 mmHg 68%
10:00 +19°C° 0 mm 1 m/S 737 mmHg 62%
11:00 +20°C° 0 mm 1 m/S 737 mmHg 60%
12:00 +21°C° 0 mm 1 m/S 737 mmHg 58%
13:00 +21°C° 0 mm 1 m/S 737 mmHg 56%
14:00 +21°C° 0 mm 1 m/S 737 mmHg 59%
15:00 +20°C° 0 mm 1 m/S 737 mmHg 62%
16:00 +20°C° 0 mm 1 m/S 736 mmHg 65%
17:00 +19°C° 0 mm 1 m/S 737 mmHg 68%
18:00 +18°C° 0 mm 1 m/S 737 mmHg 71%
19:00 +16°C° 0 mm 1 m/S 737 mmHg 75%
20:00 +16°C° 0 mm 2 m/S 737 mmHg 76%
21:00 +15°C° 0 mm 2 m/S 737 mmHg 77%
22:00 +15°C° 0 mm 2 m/S 737 mmHg 79%
23:00 +15°C° 0 mm 2 m/S 737 mmHg 79%
Mehr zeigen